QPF
0.00 0.00 0.00 0.00 0.00 0.01 0.01 0.01 0.01 0.00 0.01 0.01 0.02 0.03 0.03 0.04 0.04 0.03 0.04 0.05 0.04 0.03 0.03 0.02 0.02 0.02 0.02 0.04 0.05 0.07 0.08 0.08 0.07 0.06 0.06 0.06 0.07 0.08
0.00 0.00 0.00 0.01 0.00 0.00 0.00 0.00 0.01 0.01 0.01 0.01 0.02 0.03 0.03 0.04 0.05 0.03 0.04 0.04 0.03 0.03 0.02 0.02 0.02 0.01 0.02 0.03 0.03 0.04 0.05 0.06 0.05 0.04 0.04 0.05 0.06 0.07
0.00 0.00 0.00 0.00 0.00 0.00 0.00 0.00 0.01 0.01 0.01 0.02 0.01 0.03 0.04 0.04 0.04 0.02 0.03 0.04 0.03 0.02 0.02 0.01 0.01 0.02 0.02 0.02 0.03 0.03 0.04 0.04 0.05 0.04 0.04 0.04 0.04 0.05
0.00 0.00 0.00 0.00 0.00 0.00 0.00 0.00 0.00 0.01 0.01 0.02 0.03 0.04 0.04 0.04 0.05 0.04 0.03 0.04 0.03 0.02 0.02 0.01 0.01 0.02 0.03 0.03 0.03 0.03 0.03 0.04 0.03 0.03 0.03 0.03 0.04 0.05
0.00 0.00 0.00 0.00 0.00 0.00 0.00 0.00 0.00 0.01 0.01 0.02 0.03 0.04 0.04 0.04 0.04 0.05 0.04 0.03 0.02 0.02 0.02 0.01 0.02 0.02 0.02 0.02 0.02 0.03 0.04 0.04 0.04 0.03 0.02 0.02 0.03 0.04
0.00 0.00 0.00 0.00 0.00 0.00 0.00 0.00 0.00 0.01 0.01 0.02 0.04 0.04 0.04 0.04 0.04 0.04 0.03 0.03 0.02 0.02 0.02 0.02 0.02 0.03 0.03 0.03 0.02 0.02 0.02 0.04 0.04 0.05 0.04 0.03 0.03 0.03
0.00 0.00 0.00 0.00 0.00 0.00 0.00 0.01 0.01 0.02 0.01 0.02 0.04 0.05 0.04 0.03 0.03 0.03 0.03 0.03 0.04 0.03 0.03 0.03 0.02 0.02 0.02 0.03 0.04 0.03 0.03 0.03 0.03 0.03 0.03 0.03 0.02 0.02
0.00 0.00 0.00 0.00 0.00 0.00 0.01 0.01 0.01 0.02 0.03 0.02 0.03 0.04 0.04 0.03 0.03 0.03 0.03 0.02 0.02 0.02 0.03 0.04 0.03 0.02 0.02 0.02 0.03 0.04 0.05 0.04 0.03 0.03 0.02 0.02 0.02 0.02
0.00 0.00 0.00 0.00 0.00 0.00 0.00 0.01 0.01 0.01 0.02 0.01 0.01 0.01 0.02 0.03 0.04 0.04 0.03 0.01 0.01 0.02 0.03 0.03 0.04 0.03 0.02 0.03 0.04 0.05 0.06 0.06 0.04 0.03 0.03 0.02 0.01 0.01
0.00 0.00 0.00 0.00 0.00 0.00 0.01 0.01 0.01 0.01 0.01 0.01 0.01 0.02 0.01 0.03 0.04 0.04 0.04 0.03 0.02 0.02 0.03 0.03 0.03 0.03 0.02 0.03 0.04 0.06 0.06 0.06 0.05 0.04 0.04 0.03 0.02 0.02
0.00 0.00 0.00 0.00 0.00 0.01 0.01 0.01 0.01 0.01 0.01 0.01 0.01 0.02 0.02 0.03 0.04 0.05 0.05 0.05 0.03 0.02 0.02 0.02 0.03 0.04 0.04 0.03 0.03 0.04 0.05 0.05 0.06 0.06 0.04 0.03 0.03 0.02
0.00 0.00 0.00 0.00 0.01 0.01 0.02 0.02 0.02 0.02 0.02 0.02 0.01 0.02 0.02 0.04 0.08 0.06 0.05 0.05 0.03 0.03 0.02 0.02 0.03 0.05 0.06 0.05 0.05 0.05 0.04 0.05 0.05 0.06 0.06 0.04 0.03 0.02
0.00 0.00 0.00 0.01 0.01 0.01 0.02 0.03 0.03 0.03 0.02 0.02 0.02 0.02 0.03 0.03 0.05 0.08 0.07 0.04 0.03 0.02 0.02 0.03 0.03 0.04 0.05 0.05 0.05 0.06 0.05 0.04 0.04 0.04 0.05 0.05 0.04 0.02
0.01 0.01 0.01 0.02 0.02 0.02 0.03 0.03 0.03 0.03 0.03 0.02 0.02 0.02 0.02 0.03 0.03 0.04 0.07 0.07 0.05 0.03 0.03 0.03 0.02 0.02 0.03 0.04 0.05 0.05 0.06 0.05 0.03 0.03 0.03 0.04 0.04 0.03
0.01 0.01 0.02 0.02 0.02 0.02 0.02 0.03 0.03 0.03 0.03 0.03 0.03 0.02 0.02 0.02 0.03 0.03 0.04 0.05 0.05 0.04 0.04 0.04 0.03 0.02 0.03 0.04 0.05 0.05 0.05 0.05 0.04 0.03 0.03 0.03 0.04 0.03
0.01 0.02 0.02 0.02 0.02 0.03 0.03 0.04 0.04 0.03 0.04 0.04 0.04 0.04 0.04 0.04 0.04 0.04 0.04 0.04 0.03 0.02 0.02 0.03 0.04 0.04 0.04 0.04 0.05 0.07 0.06 0.05 0.05 0.05 0.04 0.04 0.05 0.04
0.02 0.01 0.02 0.03 0.03 0.04 0.04 0.04 0.05 0.05 0.04 0.04 0.05 0.05 0.06 0.06 0.04 0.04 0.04 0.04 0.03 0.02 0.02 0.03 0.03 0.03 0.03 0.04 0.04 0.05 0.08 0.08 0.07 0.06 0.05 0.05 0.05 0.04
0.02 0.01 0.02 0.04 0.05 0.06 0.06 0.06 0.05 0.06 0.06 0.06 0.07 0.08 0.08 0.08 0.07 0.06 0.05 0.04 0.03 0.02 0.02 0.02 0.03 0.03 0.03 0.04 0.04 0.04 0.05 0.07 0.08 0.08 0.06 0.05 0.05 0.05
0.01 0.01 0.02 0.03 0.05 0.06 0.07 0.07 0.08 0.08 0.08 0.08 0.08 0.10 0.10 0.11 0.10 0.08 0.07 0.05 0.04 0.04 0.03 0.02 0.03 0.03 0.03 0.03 0.03 0.03 0.03 0.04 0.07 0.08 0.07 0.05 0.04 0.04
0.01 0.01 0.01 0.02 0.04 0.05 0.06 0.07 0.08 0.10 0.10 0.09 0.10 0.10 0.12 0.13 0.12 0.10 0.08 0.07 0.06 0.05 0.05 0.03 0.03 0.03 0.04 0.03 0.03 0.03 0.03 0.03 0.03 0.04 0.05 0.05 0.04 0.04
0.01 0.01 0.01 0.02 0.03 0.04 0.05 0.06 0.08 0.10 0.11 0.11 0.11 0.12 0.14 0.15 0.14 0.12 0.11 0.09 0.07 0.06 0.06 0.04 0.03 0.03 0.03 0.04 0.04 0.04 0.03 0.04 0.04 0.04 0.03 0.03 0.03 0.03
0.02 0.02 0.02 0.02 0.03 0.04 0.05 0.07 0.07 0.08 0.12 0.15 0.14 0.14 0.16 0.18 0.18 0.16 0.14 0.12 0.08 0.07 0.06 0.05 0.04 0.04 0.03 0.03 0.03 0.03 0.04 0.03 0.03 0.03 0.03 0.03 0.03 0.02
0.03 0.02 0.02 0.02 0.03 0.04 0.06 0.07 0.08 0.08 0.09 0.13 0.17 0.18 0.18 0.20 0.20 0.19 0.17 0.14 0.11 0.08 0.06 0.06 0.05 0.05 0.04 0.03 0.02 0.02 0.02 0.02 0.02 0.02 0.01 0.01 0.01 0.02
MSLP
1016.27 1016.35 1016.45 1016.56 1016.66 1016.74 1016.78 1016.74 1016.63 1016.45 1016.18 1015.87 1015.51 1015.14 1014.78 1014.45 1014.17 1013.94 1013.77 1013.65 1013.58 1013.55 1013.55 1013.58 1013.62 1013.69 1013.77 1013.87 1014.00 1014.16 1014.34 1014.56 1014.80 1015.05 1015.32 1015.60 1015.88 1016.16
1015.95 1015.95 1015.97 1016.01 1016.07 1016.13 1016.17 1016.19 1016.15 1016.05 1015.89 1015.68 1015.42 1015.13 1014.83 1014.54 1014.27 1014.05 1013.87 1013.74 1013.66 1013.62 1013.61 1013.62 1013.66 1013.70 1013.77 1013.84 1013.94 1014.07 1014.21 1014.39 1014.59 1014.81 1015.04 1015.28 1015.54 1015.79
1015.72 1015.61 1015.53 1015.49 1015.48 1015.49 1015.52 1015.55 1015.56 1015.54 1015.47 1015.36 1015.20 1015.00 1014.78 1014.56 1014.34 1014.14 1013.98 1013.85 1013.77 1013.73 1013.71 1013.71 1013.73 1013.76 1013.81 1013.86 1013.93 1014.03 1014.14 1014.29 1014.45 1014.64 1014.85 1015.07 1015.30 1015.54
1015.64 1015.43 1015.25 1015.10 1015.00 1014.95 1014.94 1014.96 1014.98 1015.00 1015.00 1014.97 1014.89 1014.78 1014.63 1014.48 1014.31 1014.16 1014.03 1013.93 1013.86 1013.82 1013.80 1013.80 1013.81 1013.83 1013.85 1013.89 1013.93 1014.00 1014.09 1014.21 1014.36 1014.53 1014.72 1014.93 1015.14 1015.36
1015.73 1015.43 1015.15 1014.91 1014.72 1014.59 1014.52 1014.49 1014.49 1014.51 1014.53 1014.53 1014.50 1014.45 1014.37 1014.26 1014.16 1014.05 1013.96 1013.89 1013.85 1013.83 1013.82 1013.82 1013.83 1013.84 1013.86 1013.87 1013.90 1013.95 1014.02 1014.12 1014.25 1014.41 1014.59 1014.80 1015.01 1015.22
1015.97 1015.60 1015.25 1014.92 1014.65 1014.44 1014.28 1014.18 1014.12 1014.10 1014.08 1014.07 1014.05 1014.01 1013.96 1013.89 1013.83 1013.77 1013.73 1013.70 1013.69 1013.70 1013.71 1013.74 1013.75 1013.77 1013.78 1013.78 1013.80 1013.83 1013.88 1013.97 1014.09 1014.24 1014.42 1014.62 1014.83 1015.04
1016.26 1015.86 1015.46 1015.08 1014.74 1014.44 1014.20 1014.01 1013.86 1013.75 1013.66 1013.59 1013.52 1013.46 1013.40 1013.35 1013.31 1013.28 1013.28 1013.30 1013.34 1013.39 1013.44 1013.49 1013.54 1013.57 1013.58 1013.59 1013.60 1013.62 1013.67 1013.74 1013.85 1013.99 1014.17 1014.37 1014.58 1014.80
1016.51 1016.09 1015.68 1015.27 1014.88 1014.52 1014.20 1013.91 1013.66 1013.44 1013.25 1013.08 1012.94 1012.82 1012.72 1012.65 1012.61 1012.61 1012.63 1012.69 1012.78 1012.88 1012.98 1013.08 1013.17 1013.23 1013.27 1013.30 1013.32 1013.34 1013.38 1013.45 1013.55 1013.68 1013.85 1014.05 1014.26 1014.48
1016.61 1016.21 1015.80 1015.39 1014.98 1014.57 1014.18 1013.81 1013.45 1013.12 1012.82 1012.54 1012.30 1012.10 1011.94 1011.83 1011.77 1011.77 1011.82 1011.91 1012.04 1012.19 1012.36 1012.51 1012.65 1012.76 1012.85 1012.91 1012.96 1013.00 1013.05 1013.12 1013.22 1013.35 1013.52 1013.71 1013.92 1014.13
1016.51 1016.13 1015.75 1015.35 1014.94 1014.51 1014.08 1013.64 1013.20 1012.77 1012.36 1011.98 1011.64 1011.35 1011.13 1010.96 1010.87 1010.85 1010.90 1011.01 1011.17 1011.37 1011.59 1011.80 1012.01 1012.19 1012.34 1012.46 1012.56 1012.64 1012.72 1012.81 1012.92 1013.06 1013.22 1013.40 1013.61 1013.81
1016.19 1015.85 1015.49 1015.12 1014.72 1014.29 1013.83 1013.35 1012.86 1012.37 1011.88 1011.42 1011.00 1010.64 1010.34 1010.12 1009.98 1009.93 1009.96 1010.06 1010.24 1010.47 1010.72 1011.00 1011.27 1011.53 1011.76 1011.96 1012.13 1012.28 1012.42 1012.55 1012.69 1012.84 1013.01 1013.20 1013.39 1013.59
1015.70 1015.38 1015.06 1014.71 1014.33 1013.91 1013.45 1012.96 1012.44 1011.91 1011.38 1010.87 1010.40 1009.98 1009.63 1009.35 1009.16 1009.06 1009.05 1009.13 1009.30 1009.53 1009.81 1010.13 1010.46 1010.79 1011.12 1011.41 1011.68 1011.92 1012.14 1012.34 1012.53 1012.72 1012.91 1013.11 1013.31 1013.51
1015.12 1014.81 1014.50 1014.17 1013.80 1013.39 1012.94 1012.45 1011.94 1011.41 1010.87 1010.35 1009.86 1009.41 1009.01 1008.69 1008.44 1008.28 1008.22 1008.25 1008.37 1008.58 1008.86 1009.21 1009.59 1010.00 1010.42 1010.82 1011.20 1011.55 1011.87 1012.16 1012.43 1012.68 1012.92 1013.14 1013.36 1013.57
1014.53 1014.21 1013.89 1013.55 1013.18 1012.77 1012.33 1011.86 1011.36 1010.85 1010.33 1009.83 1009.34 1008.89 1008.47 1008.11 1007.81 1007.58 1007.44 1007.40 1007.47 1007.63 1007.90 1008.25 1008.67 1009.15 1009.66 1010.17 1010.67 1011.15 1011.59 1011.99 1012.35 1012.68 1012.97 1013.24 1013.49 1013.72
1013.96 1013.61 1013.26 1012.89 1012.50 1012.08 1011.63 1011.17 1010.69 1010.21 1009.74 1009.27 1008.81 1008.36 1007.94 1007.55 1007.20 1006.91 1006.69 1006.57 1006.56 1006.67 1006.90 1007.25 1007.70 1008.24 1008.84 1009.46 1010.09 1010.70 1011.26 1011.78 1012.25 1012.66 1013.03 1013.36 1013.65 1013.91
1013.43 1013.04 1012.63 1012.21 1011.77 1011.31 1010.84 1010.37 1009.91 1009.46 1009.02 1008.60 1008.18 1007.76 1007.34 1006.93 1006.54 1006.19 1005.90 1005.70 1005.61 1005.66 1005.86 1006.20 1006.68 1007.28 1007.97 1008.70 1009.46 1010.19 1010.89 1011.52 1012.09 1012.59 1013.03 1013.42 1013.77 1014.07
1012.91 1012.46 1011.98 1011.48 1010.96 1010.43 1009.92 1009.43 1008.97 1008.54 1008.14 1007.76 1007.38 1006.99 1006.59 1006.18 1005.76 1005.36 1005.01 1004.74 1004.59 1004.59 1004.76 1005.11 1005.63 1006.29 1007.07 1007.92 1008.79 1009.65 1010.47 1011.21 1011.88 1012.46 1012.97 1013.41 1013.80 1014.15
1012.35 1011.82 1011.26 1010.65 1010.04 1009.43 1008.85 1008.32 1007.85 1007.43 1007.05 1006.71 1006.37 1006.01 1005.63 1005.22 1004.79 1004.36 1003.97 1003.65 1003.47 1003.45 1003.62 1004.00 1004.56 1005.30 1006.18 1007.14 1008.14 1009.12 1010.05 1010.89 1011.64 1012.28 1012.84 1013.32 1013.74 1014.12
1011.70 1011.09 1010.42 1009.71 1008.99 1008.29 1007.64 1007.05 1006.55 1006.12 1005.76 1005.44 1005.13 1004.81 1004.45 1004.05 1003.62 1003.18 1002.77 1002.45 1002.26 1002.25 1002.44 1002.87 1003.51 1004.34 1005.33 1006.41 1007.53 1008.62 1009.65 1010.59 1011.40 1012.10 1012.69 1013.19 1013.63 1014.02
1010.93 1010.23 1009.46 1008.64 1007.82 1007.02 1006.29 1005.64 1005.10 1004.66 1004.31 1004.00 1003.72 1003.42 1003.09 1002.71 1002.29 1001.86 1001.46 1001.15 1000.98 1001.00 1001.25 1001.75 1002.48 1003.43 1004.53 1005.74 1006.98 1008.19 1009.32 1010.33 1011.20 1011.93 1012.55 1013.05 1013.49 1013.89
1010.03 1009.24 1008.38 1007.46 1006.54 1005.65 1004.84 1004.14 1003.56 1003.10 1002.74 1002.45 1002.18 1001.91 1001.60 1001.24 1000.85 1000.44 1000.07 999.79 999.67 999.75 1000.07 1000.66 1001.50 1002.56 1003.79 1005.12 1006.49 1007.81 1009.04 1010.12 1011.05 1011.82 1012.44 1012.95 1013.38 1013.77
1009.02 1008.16 1007.20 1006.20 1005.19 1004.23 1003.35 1002.60 1001.99 1001.51 1001.13 1000.84 1000.59 1000.34 1000.05 999.72 999.36 998.99 998.66 998.43 998.37 998.52 998.92 999.61 1000.55 1001.73 1003.08 1004.54 1006.02 1007.45 1008.77 1009.94 1010.93 1011.74 1012.38 1012.89 1013.32 1013.69
1007.95 1007.01 1005.98 1004.90 1003.82 1002.79 1001.86 1001.06 1000.41 999.90 999.52 999.23 998.99 998.75 998.49 998.20 997.88 997.56 997.28 997.11 997.12 997.34 997.83 998.60 999.64 1000.92 1002.38 1003.94 1005.53 1007.07 1008.48 1009.73 1010.78 1011.64 1012.33 1012.86 1013.29 1013.65
Thickness
5686 5685 5683 5683 5683 5682 5681 5679 5674 5671 5674 5681 5685 5691 5694 5696 5699 5701 5703 5706 5709 5711 5714 5716 5718 5719 5721 5723 5724 5726 5727 5728 5728 5729 5729 5729 5729 5729
5686 5684 5683 5682 5682 5682 5681 5679 5677 5674 5672 5678 5682 5687 5690 5693 5695 5697 5699 5701 5704 5706 5709 5711 5713 5715 5717 5718 5720 5721 5722 5723 5724 5725 5725 5725 5726 5726
5685 5683 5682 5681 5680 5680 5679 5678 5676 5674 5672 5675 5679 5683 5686 5688 5690 5693 5695 5696 5699 5701 5703 5706 5708 5709 5711 5713 5715 5716 5717 5718 5719 5720 5720 5721 5721 5722
5682 5681 5680 5680 5678 5677 5676 5675 5674 5674 5672 5672 5675 5678 5681 5684 5686 5687 5690 5692 5694 5696 5698 5700 5702 5704 5706 5708 5709 5711 5712 5713 5714 5714 5715 5716 5717 5717
5680 5679 5678 5676 5675 5674 5674 5673 5672 5673 5671 5670 5671 5674 5676 5679 5680 5682 5684 5686 5689 5691 5693 5695 5697 5699 5700 5702 5704 5705 5707 5707 5708 5709 5710 5711 5711 5712
5678 5677 5675 5674 5672 5671 5670 5670 5669 5668 5667 5666 5667 5668 5670 5673 5674 5674 5675 5679 5682 5686 5688 5689 5691 5693 5695 5697 5698 5699 5701 5702 5703 5703 5704 5705 5706 5706
5674 5673 5672 5671 5670 5669 5667 5665 5664 5663 5661 5661 5662 5663 5664 5665 5667 5669 5670 5672 5675 5678 5680 5683 5685 5687 5688 5690 5692 5693 5695 5696 5697 5698 5698 5699 5700 5700
5668 5668 5667 5666 5665 5664 5664 5663 5661 5658 5657 5656 5657 5658 5661 5663 5664 5664 5664 5664 5665 5671 5672 5675 5677 5679 5682 5684 5686 5687 5689 5690 5691 5692 5692 5693 5693 5694
5662 5660 5660 5660 5658 5656 5656 5657 5656 5655 5654 5653 5654 5656 5657 5660 5659 5659 5659 5660 5662 5666 5666 5667 5670 5672 5675 5677 5679 5681 5682 5683 5684 5685 5686 5686 5687 5687
5654 5652 5650 5649 5648 5647 5647 5647 5647 5648 5648 5649 5649 5652 5655 5657 5657 5658 5658 5657 5658 5660 5662 5660 5663 5665 5668 5670 5672 5674 5675 5677 5678 5678 5679 5679 5679 5679
5645 5643 5640 5639 5639 5637 5635 5635 5637 5639 5641 5642 5644 5646 5649 5651 5652 5650 5649 5649 5650 5652 5654 5655 5656 5657 5659 5662 5665 5666 5668 5669 5670 5671 5671 5672 5671 5671
5633 5631 5629 5627 5626 5625 5622 5623 5624 5628 5630 5631 5634 5638 5640 5643 5645 5646 5646 5644 5644 5646 5649 5649 5649 5649 5650 5653 5656 5658 5660 5661 5662 5663 5663 5664 5663 5663
5619 5618 5616 5615 5614 5613 5611 5611 5613 5616 5617 5619 5622 5626 5630 5633 5637 5639 5641 5642 5641 5643 5646 5645 5644 5644 5644 5645 5647 5649 5651 5652 5653 5654 5655 5655 5656 5656
5604 5603 5602 5601 5600 5600 5599 5600 5602 5603 5604 5606 5609 5614 5618 5623 5627 5631 5634 5636 5639 5641 5642 5641 5640 5639 5638 5637 5638 5640 5642 5643 5644 5645 5646 5647 5647 5647
5590 5589 5588 5587 5586 5585 5586 5588 5588 5588 5590 5592 5597 5602 5608 5613 5616 5619 5622 5626 5628 5632 5634 5635 5636 5635 5634 5634 5633 5633 5633 5634 5635 5636 5637 5637 5638 5638
5575 5574 5573 5572 5570 5570 5571 5572 5573 5575 5576 5580 5586 5591 5595 5598 5603 5608 5610 5614 5616 5619 5623 5626 5628 5628 5627 5628 5628 5627 5627 5627 5627 5628 5628 5628 5628 5630
5559 5558 5556 5554 5554 5553 5554 5556 5557 5559 5562 5567 5572 5578 5582 5586 5592 5597 5600 5603 5606 5609 5611 5613 5616 5619 5621 5621 5620 5621 5620 5620 5621 5620 5619 5618 5619 5620
5542 5540 5538 5536 5536 5537 5538 5541 5544 5545 5548 5552 5558 5564 5570 5575 5580 5586 5589 5593 5597 5601 5603 5604 5604 5605 5606 5608 5613 5614 5614 5613 5613 5613 5612 5610 5609 5610
5526 5524 5522 5521 5522 5522 5524 5526 5530 5534 5536 5539 5545 5552 5558 5564 5569 5575 5580 5584 5588 5593 5596 5597 5598 5599 5599 5601 5603 5606 5607 5606 5604 5603 5603 5603 5602 5602
5510 5509 5509 5509 5509 5510 5512 5514 5518 5522 5524 5527 5532 5540 5546 5552 5559 5566 5572 5576 5580 5583 5586 5589 5592 5595 5598 5599 5596 5594 5598 5599 5598 5596 5593 5591 5590 5591
5498 5496 5496 5496 5497 5498 5500 5502 5506 5509 5513 5516 5521 5528 5534 5540 5548 5555 5562 5567 5571 5575 5578 5584 5588 5589 5588 5586 5583 5583 5585 5589 5592 5591 5587 5583 5580 5579
5485 5484 5484 5484 5485 5486 5488 5490 5493 5497 5501 5505 5510 5516 5522 5529 5536 5543 5551 5557 5562 5568 5571 5574 5575 5576 5577 5579 5579 5576 5574 5576 5579 5581 5582 5583 5579 5576
5473 5472 5472 5473 5473 5474 5476 5478 5482 5486 5490 5494 5498 5505 5511 5518 5526 5533 5540 5547 5553 5558 5560 5562 5564 5567 5569 5572 5571 5568 5566 5566 5567 5567 5568 5572 5575 5575